Total_Precipitation_Accumulation
1.94 2.42 3.02 3.68 4.50 5.64 6.32 6.47 6.28 5.65 5.17 4.76 4.52 4.26 4.04 3.74 3.22 2.86 2.66 2.57 2.44 2.46 2.81 2.59 2.67 2.52 2.60 2.74 2.83 3.07 3.13 2.91 3.05 3.37 3.20 2.85 2.56 2.53 2.46 2.40 2.51 2.56 2.66
1.85 2.47 3.17 3.94 4.64 5.19 5.53 5.64 5.33 4.63 4.18 3.96 3.95 3.68 3.48 3.17 2.96 2.72 2.78 2.38 2.25 2.36 2.33 2.60 2.48 2.44 2.70 2.68 2.77 3.02 2.96 2.64 2.81 3.32 3.59 3.36 3.34 2.78 2.09 2.29 2.44 2.50 2.78
2.02 2.82 3.57 4.33 4.64 4.66 4.42 4.13 4.01 3.68 3.63 3.61 3.46 3.25 3.20 2.96 2.79 2.60 2.58 2.25 1.99 2.00 2.15 2.24 2.23 2.42 2.40 2.64 2.80 2.88 3.05 3.01 2.77 2.77 3.29 3.34 3.34 3.06 2.45 2.10 2.20 2.52 2.89
2.18 2.88 3.38 3.62 3.75 3.67 3.36 3.20 3.19 3.17 3.17 3.10 3.01 2.73 2.62 2.61 2.47 2.39 2.45 2.35 2.04 1.97 2.04 2.12 2.31 2.41 2.29 2.66 2.39 2.58 2.99 3.16 2.87 2.82 2.72 2.79 3.01 3.12 2.96 2.54 2.19 2.34 2.51
1.81 1.97 2.17 2.33 2.43 2.42 2.55 2.66 2.84 3.01 2.94 2.90 2.94 2.90 2.61 2.56 2.52 2.52 2.65 2.57 2.32 2.08 1.91 2.16 2.48 2.57 2.41 2.46 2.57 2.91 2.88 2.87 2.84 2.81 2.75 2.86 2.94 2.75 2.79 2.78 2.58 2.37 2.04
1.23 1.32 1.43 1.54 1.73 1.74 1.97 2.19 2.34 2.50 2.70 2.75 2.63 2.59 2.56 2.64 2.68 2.66 2.53 2.34 2.23 2.15 2.04 2.21 2.51 2.54 2.60 2.59 2.58 2.70 2.77 2.88 2.95 2.85 2.63 2.71 2.83 2.86 2.97 2.68 2.63 2.64 2.24
1.04 1.32 1.35 1.44 1.60 1.51 1.65 1.91 1.95 1.97 2.12 2.16 2.17 2.25 2.43 2.50 2.34 2.25 2.22 2.10 1.88 1.92 2.06 2.17 2.44 2.45 2.48 2.43 2.67 2.71 2.69 2.84 2.82 2.73 2.69 2.59 2.49 2.64 2.82 2.83 2.62 2.58 2.43
0.93 1.14 1.03 1.12 1.26 1.26 1.39 1.56 1.64 1.69 1.76 1.90 2.04 2.01 2.13 2.12 2.03 2.14 2.02 1.91 1.67 1.60 1.75 1.94 2.01 2.10 2.14 2.12 2.67 2.59 2.66 2.80 2.65 2.43 2.83 2.69 2.36 2.53 2.65 2.93 3.20 2.97 2.78
0.73 0.85 0.80 0.73 0.90 1.07 1.22 1.31 1.38 1.51 1.56 1.74 1.85 1.81 1.87 1.97 2.04 2.06 1.97 1.78 1.81 1.68 1.75 1.80 2.04 2.19 2.26 2.35 2.65 2.59 2.58 2.80 2.60 2.54 2.70 2.59 2.48 2.48 2.42 2.84 3.26 3.50 3.25
0.72 0.74 0.74 0.67 0.76 0.92 1.20 1.26 1.28 1.44 1.50 1.65 1.70 1.53 1.69 1.82 2.00 1.97 1.89 1.83 1.84 1.82 1.95 2.01 2.16 2.30 2.29 2.36 2.57 2.50 2.61 2.77 2.63 2.63 2.66 2.56 2.49 2.62 2.54 2.67 2.99 3.29 3.50
0.79 0.72 0.71 0.69 0.65 0.77 1.01 1.09 1.26 1.39 1.46 1.59 1.73 1.75 1.75 1.68 1.82 1.88 1.87 1.90 1.90 1.89 1.97 2.09 2.25 2.30 2.40 2.52 2.65 2.45 2.56 2.71 2.87 2.74 2.75 2.80 2.89 2.87 2.78 2.88 2.95 3.16 3.47
0.63 0.72 0.81 0.82 0.72 0.72 0.84 1.01 1.21 1.36 1.44 1.58 1.75 1.83 1.99 1.93 1.87 1.88 1.94 2.01 2.11 2.20 2.15 2.21 2.27 2.19 2.28 2.54 2.59 2.53 2.60 2.65 2.68 2.85 3.13 3.04 3.11 3.05 2.88 3.02 2.95 3.07 3.46
0.73 0.82 0.95 0.88 0.90 0.87 0.90 1.02 1.21 1.44 1.61 1.73 1.86 2.00 2.10 2.01 1.92 2.05 2.14 2.16 2.31 2.47 2.51 2.51 2.37 2.32 2.34 2.45 2.54 2.64 2.66 2.66 2.70 2.84 2.91 2.97 3.23 3.11 3.02 2.92 2.89 3.02 3.24
0.88 0.87 0.91 0.89 0.99 1.16 1.22 1.31 1.57 1.63 1.66 1.88 2.10 2.20 2.26 2.17 2.11 2.22 2.32 2.34 2.41 2.56 2.70 2.66 2.61 2.55 2.44 2.30 2.29 2.36 2.45 2.59 2.73 2.76 2.69 2.78 3.03 3.13 3.15 2.92 2.93 3.12 3.25
0.82 0.76 0.78 0.90 1.02 1.18 1.30 1.45 1.50 1.70 1.82 2.09 2.25 2.28 2.39 2.38 2.39 2.51 2.53 2.46 2.49 2.52 2.70 2.77 2.81 2.76 2.54 2.25 2.32 2.48 2.46 2.64 2.63 2.53 2.42 2.42 2.68 2.93 3.03 2.75 2.82 3.04 3.05
0.86 0.92 0.95 1.03 1.14 1.19 1.32 1.44 1.53 1.76 2.01 2.26 2.53 2.58 2.63 2.61 2.67 2.81 2.86 2.79 2.79 2.93 2.95 2.83 2.76 2.67 2.26 2.43 2.50 2.50 2.52 2.67 2.65 2.55 2.44 2.32 2.28 2.31 2.49 2.62 2.75 2.93 2.92
1.01 1.08 1.21 1.20 1.21 1.27 1.40 1.59 1.74 1.95 2.14 2.30 2.53 2.71 2.81 2.86 2.95 3.02 3.03 2.98 3.09 3.29 3.26 3.09 2.88 2.71 2.65 2.63 2.41 2.37 2.24 2.29 2.37 2.48 2.45 2.13 1.93 2.06 1.99 2.22 2.39 2.47 2.57
1.04 1.14 1.32 1.36 1.34 1.39 1.52 1.77 1.96 2.23 2.46 2.57 2.65 2.77 2.87 2.93 3.00 3.08 2.97 3.00 3.16 3.22 3.22 3.10 2.94 2.79 2.70 2.61 2.33 2.31 2.08 2.06 2.11 2.20 2.25 2.19 2.03 2.01 2.14 2.14 2.05 1.97 2.04
1.20 1.30 1.43 1.49 1.57 1.62 1.73 1.86 2.01 2.26 2.54 2.74 2.73 2.71 2.83 2.96 3.01 3.02 3.02 3.08 3.13 3.01 2.87 2.77 2.74 2.70 2.74 2.77 2.44 2.27 2.01 2.04 2.01 2.02 2.04 2.07 1.98 2.18 2.16 2.07 2.01 1.99 1.98
1.28 1.38 1.48 1.51 1.59 1.67 1.71 1.82 2.03 2.29 2.53 2.74 2.81 2.81 2.91 2.98 3.01 3.10 3.15 3.09 3.03 2.93 2.82 2.64 2.61 2.60 2.58 2.66 2.31 2.17 1.97 1.98 1.97 2.02 2.02 2.05 1.98 2.05 1.95 1.85 1.94 1.91 1.92
1.45 1.48 1.54 1.52 1.51 1.62 1.72 1.87 2.00 2.16 2.38 2.62 2.84 3.04 3.16 3.17 3.16 3.19 3.08 3.00 2.92 2.93 2.87 2.72 2.59 2.54 2.47 2.52 2.26 2.09 1.83 1.94 2.16 2.15 2.06 2.07 2.08 1.82 1.77 1.71 1.72 1.78 1.86
1.47 1.49 1.52 1.61 1.67 1.78 1.86 1.96 1.93 2.05 2.28 2.40 2.61 2.77 2.94 3.04 3.03 3.08 3.02 3.07 3.00 2.86 2.73 2.59 2.43 2.35 2.35 2.26 2.17 1.99 1.82 1.89 2.04 2.13 2.18 2.21 2.12 1.78 1.65 1.52 1.50 1.61 1.61
1.70 1.65 1.56 1.63 1.79 1.89 1.96 2.03 2.02 1.98 2.06 2.20 2.40 2.62 2.79 3.05 3.17 3.21 3.15 3.03 2.93 2.73 2.52 2.37 2.21 2.21 2.27 2.27 2.11 1.89 1.80 1.86 1.89 1.97 2.14 2.03 1.92 1.72 1.49 1.43 1.44 1.48 1.41
1.50 1.64 1.61 1.66 2.01 1.99 1.94 1.99 2.04 2.04 2.10 2.20 2.30 2.46 2.60 2.77 3.03 3.11 3.04 2.87 2.62 2.45 2.38 2.30 2.25 2.28 2.34 2.23 2.05 1.82 1.69 1.77 1.83 1.87 1.95 1.94 1.89 1.80 1.65 1.55 1.46 1.38 1.42
1.38 1.39 1.48 1.55 1.68 1.77 1.81 1.82 1.90 1.99 2.03 2.06 2.09 2.13 2.32 2.51 2.69 2.73 2.65 2.49 2.36 2.40 2.41 2.36 2.32 2.23 2.14 2.21 2.14 1.89 1.77 1.77 1.84 1.84 1.85 1.87 1.96 1.98 1.93 1.85 1.76 1.71 1.71
1.34 1.39 1.37 1.40 1.50 1.57 1.69 1.78 1.93 2.07 2.13 2.09 2.05 1.98 1.93 2.03 2.31 2.59 2.66 2.53 2.30 2.30 2.21 2.11 2.06 2.01 1.93 1.97 1.96 1.86 1.78 1.84 1.92 1.79 1.83 1.98 2.05 2.07 2.08 2.08 1.93 1.82 1.71